Hourly Weather Roundup
Issued by NWS Central Illinois

Home | Current Version | Previous Version | Text Only | Print | Product List | Glossary On
Versions: 1 2 3 4 5 6 7 8 9 10 11 12 13 14 15 16 17 18 19 20 21 22 23 24 25 26 27 28 29 30 31 32 33 34 35 36 37 38 39 40 41 42 43 44 45 46 47 48 49 50
000
NZUS43 KILX 192110
HWRILX

Area Weather Roundup
National Weather Service Lincoln IL
400 PM CDT SAT AUG 19 2017

NOTE:  "FAIR" indicates few or no clouds below 12,000 feet, with
       no sigificant weather and/or obstructions to visibility.


CITY           SKY/WX    TMP DP  RH WIND       PRES   REMARKS
Bloomington    SUNNY     83  63  50 VRB5      29.97F HX  84
Champaign      MOSUNNY   86  64  47 VRB3      29.95S HX  87
Danville       SUNNY     83  67  59 N6        29.93S HX  85
Decatur        PTSUNNY   85  68  56 NE3       29.94S HX  88
Effingham      MOSUNNY   89  69  52 SW8       29.94F HX  94
Flora          PTSUNNY   86  73  63 S6        29.93F HX  93
Galesburg      NOT AVBL
Jacksonville   SUNNY     86  63  45 W3        29.93S HX  87
Lacon          SUNNY     83  59  44 E3        29.95S HX  83
Lawrenceville  SUNNY     91  67  44 SW14      29.92F HX  94
Litchfield     MOSUNNY   85  67  55 NW5       29.94S HX  88
$$


CITY           SKY/WX    TMP DP  RH WIND       PRES   REMARKS
Lincoln        MOSUNNY   84  66  54 E3        29.94F HX  86
Macomb         SUNNY     83  66  55 CALM      29.97S HX  85
Mattoon        SUNNY     87  69  54 SW6       29.92F HX  91
Mt Carmel AP   MOSUNNY   87  69  53 W7        29.92F HX  91
Olney-Noble AP SUNNY     87  65  48 CALM      29.93F HX  89
Paris AP       CLOUDY    84  69  59 NE5       29.94S HX  88
Peoria         SUNNY     86  58  38 CALM      29.94F HX  85
Pontiac        SUNNY     82  61  48 CALM      29.97S HX  82
Rantoul        SUNNY     86  64  48 NW3       29.95S HX  87
Robinson       TSTM      76  67  71 N13       29.95R
Springfield    SUNNY     89  71  55 N6        29.94S HX  95
Taylorville    SUNNY     84  68  57 CALM      29.94F HX  87
$$

...REGIONAL REPORTS...


CITY           SKY/WX    TMP DP  RH WIND       PRES   REMARKS
Chicago O`Hare MOSUNNY   85  51  31 E5        29.94S HX  83
Kankakee       SUNNY     82  59  45 CALM      29.96S HX  82
Moline         SUNNY     83  61  47 SE7       29.95S HX  83
Mount Sterling SUNNY     85  64  50 N3        29.93S HX  86
Mount Vernon     N/A     89  71  55 SW5       29.93F HX  95
Pittsfield     PTSUNNY   88  67  50 NE5       29.93F HX  90
Quincy         SUNNY     88  62  41 NW3       29.92F HX  88
Rockford       MOSUNNY   80  57  45 VRB3      29.97S HX  80
$$


CITY           SKY/WX    TMP DP  RH WIND       PRES   REMARKS
Burlington     SUNNY     83  67  58 VRB7      29.94F HX  85
Cedar Rapids   MOSUNNY   81  60  48 VRB5      29.95F HX  82
Des Moines     MOSUNNY   85  62  46 E5        29.92F HX  85
Kirksville     SUNNY     91  51  25 W6        29.93F HX  88
Ottumwa        MOSUNNY   86  64  47 NE8       29.91F HX  87
St Louis       MOSUNNY   88  66  48 N8        29.93F HX  90
$$


CITY           SKY/WX    TMP DP  RH WIND       PRES   REMARKS
Terre Haute    PTSUNNY   87  67  51 S5        29.92F HX  90
Evansville     SUNNY     87  68  52 SW7       29.94F HX  90
Indianapolis   MOSUNNY   87  60  40 NW5       29.93S HX  87
Lafayette      SUNNY     83  60  45 VRB5      29.95S HX  83
Madison        MOSUNNY   81  60  48 NW5       29.95F HX  82
Milwaukee      MOSUNNY   81  60  48 N7        29.94S HX  82
$$






USA.gov is the U.S. government's official web portal to all federal, state and local government web resources and services.